{"data":{"norad_id":56376,"epoch":"2026-09-20T22:26:38.827104Z","epoch_age_seconds":74337,"freshness":"FRESH","line1":"1 56376U 23061C   26263.93517161 -.00000418  00000+0 -56821-5 0  9992","line2":"2 56376  43.0035 174.9428 0000861 267.9122  92.1631 15.27574315186617","mean_motion":15.27574315,"eccentricity":8.61e-5,"inclination_deg":43.0035,"raan_deg":174.9428,"arg_perigee_deg":267.9122,"mean_anomaly_deg":92.1631,"bstar":-5.6821e-6,"rev_number":18661,"period_min":94.267099535514,"perigee_km":482.47536943907,"apogee_km":483.65686861616,"semimajor_km":6861.2031190276,"source":"CELESTRAK","updated_at":"2026-09-21T09:00:33.430534Z"}}